This demonstration page uses our WeatherBlox Daily Observations layout. Learn more.

Left ArrowRight Arrow

39.01783, -85.05884

Hourly Observations for August 4, 2022

Temp ( °F °C ) Dew Point ( °F °C ) Humidity (%) Winds ( mph kmh ) Pressure ( in mb ) Visibility ( mi km ) Precip ( " mm )
12:52 am 00:52 Mostly Clear 77 25 76 24.4 96 96 S 7 11 29.96 1015 9 14 0.00 0.00
1:52 am 01:52 Mostly Clear 77 25 76 24.4 96 96 SSW 7 11 29.95 1014 9 14 0.00 0.00
2:52 am 02:52 Mostly Clear 77 25 76 24.4 96 96 SSW 6 9 29.95 1014 9 14 0.00 0.00
3:52 am 03:52 Mostly Cloudy 76 24.4 71 21.7 85 85 SSW 13 20 29.97 1015 10 16 0.00 0.00
4:52 am 04:52 Partly Cloudy 73 22.8 70 21.1 90 90 S 12 19 29.97 1015 10 16 0.00 0.00
5:52 am 05:52 Partly Cloudy 74 23.3 70 21.1 88 88 SW 6 9 29.96 1015 10 16 0.00 0.00
6:52 am 06:52 Mostly Cloudy 75 23.9 70 21.1 84 84 SW 8 13 29.98 1015 10 16 0.00 0.00
7:52 am 07:52 Mostly Cloudy 74 23.3 71 21.7 91 91 S 8 13 29.99 1016 10 16 0.00 0.00
8:52 am 08:52 Mostly Cloudy 76 24.4 72 22.2 88 88 SSW 12 19 30.00 1016 10 16 0.00 0.00
9:52 am 09:52 Mostly Cloudy 78 25.6 73 22.8 85 85 SSW 9 15 30.02 1017 10 16 0.00 0.00
10:52 am 10:52 Mostly Cloudy 79 26.1 74 23.3 85 85 SSW 8 13 30.04 1017 9 14 0.00 0.00
11:13 am 11:13 Mostly Cloudy 81 27.2 75 23.9 82 82 SW 6 9 30.03 1017 9 14 0.00 0.00
11:52 am 11:52 Mostly Cloudy 83 28.3 76 24.4 79 79 W 5 7 30.04 1017 8 13 0.00 0.00
12:37 pm 12:37 Mostly Cloudy 84 28.9 77 25 80 80 SW 3 6 30.03 1017 9 14 0.00 0.00
12:52 pm 12:52 Cloudy 84 28.9 76 24.4 77 77 VRB 5 7 30.04 1017 9 14 0.00 0.00
1:08 pm 13:08 Cloudy 84 28.9 76 24.4 77 77 W 8 13 30.02 1017 9 14 0.00 0.00
1:52 pm 13:52 Cloudy 84 28.9 76 24.4 77 77 W 8 13 30.02 1017 10 16 0.00 0.00
2:12 pm 14:12 Cloudy 84 28.9 76 24.4 77 77 W 5 7 30.01 1016 9 14 0.00 0.00
2:35 pm 14:35 Cloudy 81 27.2 77 25 88 88 W 7 11 30.01 1016 8 13 0.00 0.00
2:39 pm 14:39 Cloudy with Nearby Thunderstorms 81 27.2 78 25.6 91 91 W 9 15 30.02 1016 9 14 0.00 0.00
2:52 pm 14:52 Cloudy with Nearby Thunderstorms 81 27.2 78 25.6 91 91 WSW 7 11 30.02 1017 8 13 0.00 0.00
3:02 pm 15:02 Cloudy 80 26.7 76 24.4 87 87 W 6 9 30.01 1016 8 13 0.00 0.00
3:52 pm 15:52 Cloudy 83 28.3 77 25 82 82 WSW 5 7 30.00 1016 9 14 0.00 0.00
4:52 pm 16:52 Cloudy 83 28.3 76 24.4 79 79 S 6 9 30.01 1016 10 16 0.00 0.00
5:01 pm 17:01 Cloudy with Nearby Thunderstorms 84 28.9 76 24.4 77 77 SSW 6 9 29.99 1016 10 16 0.00 0.00
5:52 pm 17:52 Cloudy with Nearby Thunderstorms 83 28.3 74 23.3 74 74 SW 10 17 30.01 1016 10 16 0.00 0.00
6:10 pm 18:10 Cloudy with Nearby Thunderstorms 81 27.2 74 23.3 79 79 WNW 18 30 30.01 1016 10 16 0.00 0.00
6:26 pm 18:26 Cloudy 76 24.4 71 21.7 85 85 W 10 17 30.00 1016 10 16 0.00 0.00
6:52 pm 18:52 Cloudy 77 25 71 21.7 82 82 W 9 15 30.02 1017 10 16 0.00 0.00
7:25 pm 19:25 Cloudy with Thunderstorms 78 25.6 70 21.1 76 76 Calm 30.02 1017 10 16 0.00 0.00
7:43 pm 19:43 Cloudy with Nearby Thunderstorms 77 25 72 22.2 85 85 S 7 11 30.03 1017 10 16 0.00 0.00
7:52 pm 19:52 Cloudy with Light Rain 77 25 71 21.7 82 82 SW 5 7 30.04 1017 10 16 0.00 0.00
8:52 pm 20:52 Cloudy 74 23.3 73 22.8 97 97 SSE 5 7 30.03 1017 10 16 0.00 0.00
9:52 pm 21:52 Cloudy 74 23.3 72 22.2 94 94 SE 6 9 30.03 1017 10 16 0.00 0.00
10:52 pm 22:52 Mostly Cloudy 73 22.8 71 21.7 94 94 SE 6 9 30.05 1018 10 16 0.00 0.00
11:52 pm 23:52 Mostly Cloudy 74 23.3 70 21.1 88 88 S 6 9 30.05 1018 10 16 0.00 0.00

Powered by AerisWeather